Regional Weather Roundup
Issued by NWS

Home | Current Version | Previous Version | Text Only | Print | Product List | Glossary Off
Versions: 1 2 3 4 5 6 7 8 9 10 11 12 13 14 15 16 17 18 19 20 21 22 23 24 25 26 27 28 29 30 31 32 33 34 35 36 37 38 39 40 41 42 43 44 45 46 47 48 49 50

000
ASUS43 KBIS 251310
RWRND
NORTH DAKOTA REGIONAL WEATHER ROUNDUP
NATIONAL WEATHER SERVICE EASTERN NORTH DAKOTA/GRAND FORKS ND
800 AM CDT THU MAY 25 2017

  NOTE: "FAIR" INDICATES FEW OR NO CLOUDS BELOW 12,000 FEET WITH NO
  SIGNIFICANT WEATHER AND/OR OBSTRUCTIONS TO VISIBILITY.

NDZ001>003-009>011-017-251400-
...NORTHWEST NORTH DAKOTA...

CITY           SKY/WX    TMP DP  RH WIND       PRES   REMARKS
WILLISTON      FAIR      51  42  71 SW16G22   29.37R
MINOT          FAIR      53  49  86 SE5       29.37S
MINOT AFB      FAIR      53  51  92 S14       29.36S
$$

NDZ018>021-031>035-040>046-251400-
...SOUTHWEST NORTH DAKOTA...

CITY           SKY/WX    TMP DP  RH WIND       PRES   REMARKS
BISMARCK       FAIR      54  47  77 S9        29.42R
DICKINSON      FAIR      47  45  93 W10       29.42R
GARRISON         N/A     50  49  96 S6        29.39R
HETTINGER      FAIR      47  46  97 NW8       29.46R
$$

NDZ004>008-012>016-024-026-027-054-251400-
...NORTHEAST NORTH DAKOTA...

CITY           SKY/WX    TMP DP  RH WIND       PRES   REMARKS
GRAND FORKS    CLOUDY    54  45  71 SE20      29.54R
GRAND FORKS AF CLOUDY    53  44  72 S13G21    29.54R
DEVILS LAKE    CLOUDY    52  45  77 SE22      29.47S
$$

NDZ022-023-025-028>030-036>039-047>053-251400-
...SOUTHEAST NORTH DAKOTA...

CITY           SKY/WX    TMP DP  RH WIND       PRES   REMARKS
JAMESTOWN      CLOUDY    52  44  74 SE16G24   29.46R
FARGO          FAIR      54  45  71 SE17G25   29.54R
WAHPETON       FAIR      52  43  71 SE15      29.57S
$$




USA.gov is the U.S. government's official web portal to all federal, state and local government web resources and services.